Location: *
(58.4167°N, 22.5000°E)
Time: 23:17:03
(UTC+00:00)

Cosmos 968 Rocket - Pass Details

Date: 22 September 2019
Orbit: 740 x 771 km, 74.0° (Epoch: 17 October)

Event Time Altitude Azimuth Distance (km) Brightness Sun altitude
Rises 19:52:06 0° 328° (NNW) 3,235 8.1 -24.3°
Reaches altitude 10° 19:54:29 10° 331° (NNW) 2,311 7.0 -24.5°
Maximum altitude 19:59:45 75° 57° (ENE) 800 3.4 -25.0°
Enters shadow 20:00:08 71° 97° (E) 816 3.4 -25.0°
